Lid_Strength_Index
1 1 0 0 0 0 0 -0 -0 -0 -0 -0 -0 -0 -1 -1 0 3 5 3 2 -1 0 3 4 4 3 4 4 4 8 8 8 9 8 7 7 7 7 6 7 6 6 7 6
1 1 1 0 0 0 0 0 0 -0 -0 -0 0 -0 -0 -0 2 4 1 0 -1 -1 4 4 5 4 4 5 5 6 7 7 7 7 7 7 7 6 8 7 7 7 6 8 7
2 2 1 1 1 0 0 0 0 0 0 -0 0 -0 -0 1 5 4 -0 -1 -1 0 4 4 4 4 5 5 5 6 8 7 7 6 7 7 7 6 7 8 6 6 6 7 8
2 2 2 2 1 1 0 0 0 0 0 0 0 -0 0 2 8 4 -0 0 0 2 4 5 5 6 6 6 5 8 6 6 6 7 7 7 6 7 7 6 5 4 4 6 8
2 2 2 2 2 1 1 0 0 0 0 0 -0 -0 2 5 5 3 2 2 3 4 5 5 5 5 7 6 6 7 6 7 6 7 7 7 8 7 6 5 4 6 6 6 7
2 2 2 2 2 1 1 1 0 0 0 0 0 0 3 8 3 3 4 4 4 4 5 5 5 4 6 7 7 7 7 7 6 7 7 8 8 8 6 5 5 5 7 6 7
3 3 3 3 2 2 1 1 0 0 0 0 -0 1 4 6 3 3 4 4 5 4 5 5 4 5 5 6 6 7 9 7 7 7 8 8 9 9 6 6 6 6 6 7 6
3 4 4 4 3 3 2 1 1 1 0 0 -0 2 6 3 2 4 4 5 4 4 4 4 4 5 6 6 7 8 8 10 7 7 8 8 10 7 5 7 7 7 6 7 7
4 4 4 3 3 3 3 2 1 1 1 0 2 3 7 4 5 3 4 5 5 5 4 5 4 5 7 8 8 8 10 9 8 8 8 9 9 7 6 7 7 7 6 6 7
4 4 4 4 4 3 3 2 2 2 2 3 4 6 5 6 4 4 5 5 6 5 6 6 6 7 7 8 12 10 10 9 10 8 9 9 10 7 6 7 7 7 7 6 6
4 4 3 4 3 3 3 5 6 7 5 6 6 6 7 4 4 5 5 6 6 6 8 7 9 10 8 7 8 8 10 10 9 8 9 9 9 8 7 7 7 7 7 6 6
3 3 3 3 3 3 4 7 6 7 10 7 6 6 6 4 6 6 6 8 8 9 8 9 11 8 7 8 8 9 10 10 9 8 10 10 10 8 8 8 7 7 7 7 6
3 3 3 3 3 4 6 7 5 5 9 9 7 8 7 6 7 7 7 7 8 9 9 10 9 8 9 9 10 10 11 10 10 9 11 11 12 10 9 8 8 7 7 7 7
3 3 3 3 5 4 6 5 5 6 13 12 11 9 7 7 10 7 7 7 9 10 9 10 8 9 9 11 10 12 9 9 10 11 13 11 15 11 9 9 8 8 7 6 6
3 3 3 4 5 5 6 5 5 7 17 12 12 8 8 10 10 10 8 9 10 10 9 11 10 11 11 10 9 11 11 11 11 12 12 12 14 12 11 11 10 9 7 7 7
3 3 3 3 3 4 5 6 7 14 18 13 11 11 11 10 11 11 10 8 9 10 10 10 10 10 9 11 10 11 11 11 12 12 16 13 13 13 11 12 10 10 9 8 8
3 3 4 4 5 3 4 6 14 17 12 13 12 11 11 11 11 12 13 13 12 14 13 10 10 9 10 11 11 11 12 14 15 16 16 11 13 12 10 9 9 9 9 8 8
2 3 4 4 3 3 6 10 17 14 12 11 11 11 12 11 11 11 12 13 12 11 11 12 13 10 10 10 9 12 11 14 18 16 15 13 16 13 9 9 9 9 8 8 9
2 3 4 4 3 4 9 15 15 13 10 11 11 12 12 11 11 11 11 11 10 11 14 14 13 12 11 11 9 12 13 10 13 15 16 15 13 10 10 10 10 9 10 9 9
3 4 5 3 5 7 13 15 12 10 11 11 14 12 13 12 13 12 12 10 10 9 8 10 14 12 15 13 13 12 11 14 13 18 18 16 14 13 11 11 10 10 10 9 8
3 6 3 3 5 9 16 15 12 10 10 13 13 12 12 12 11 12 12 10 10 10 9 10 11 13 14 15 14 16 15 15 15 14 17 18 16 11 11 10 10 10 10 9 8
4 9 3 4 10 11 15 13 11 10 11 11 12 12 13 12 12 12 12 11 9 10 13 11 13 15 13 11 14 13 13 13 16 17 15 16 17 11 10 9 9 10 9 8 8
6 7 4 4 12 14 12 12 11 11 11 13 13 12 12 14 15 13 12 10 10 11 12 12 15 17 15 15 16 15 14 14 13 14 16 17 17 11 10 10 10 10 9 9 9
6 10 8 7 7 9 12 12 12 10 10 10 12 12 13 15 13 15 13 10 9 10 10 11 13 15 17 15 13 15 14 14 14 16 16 16 14 12 11 10 9 9 8 8 8
6 9 7 11 10 9 9 10 12 12 9 10 11 12 12 14 13 14 13 12 11 11 12 12 16 14 14 13 13 14 14 14 16 15 16 15 14 12 11 10 9 9 9 9 9
7 8 7 8 8 9 10 11 11 10 10 10 11 10 11 13 12 12 11 11 12 13 13 12 16 14 16 14 14 15 14 13 14 14 14 14 15 11 10 10 10 9 9 9 9
5 6 10 10 10 10 11 10 10 9 8 8 8 9 10 9 9 8 8 8 9 12 13 14 15 16 18 14 14 17 15 14 14 13 13 15 12 9 10 10 9 8 8 8 8